SCP
0 0 0 0 0 0 0 0 0 0 0 0 0 0 0 0 0 0 0 0 0 0 0 0 0 0 0 0 0 0 0 0 0 0 0 0 0 0 0 0 0 0 0 0 0 0 0 0 0
0 0 0 0 0 0 0 0 0 0 0 0 0 0 -0 0 0 0 0 0 0 0 0 0 0 0 0 0 0 0 0 0 0 0 0 0 0 0 0 0 0 0 0 0 0 0 0 0 0
0 0 0 0 0 0 0 0 0 0 0 0 -0 0 -0 0 0 0 0 0 0 0 0 0 0 0 0 0 0 0 0 0 0 0 0 0 0 0 0 0 0 0 0 0 0 0 0 0 0
0 0 0 0 0 0 0 0 0 0 0 0 0 0 0 0 0 0 0 0 0 0 0 0 0 0 0 0 0 0 0 0 0 0 0 0 0 0 0 0 0 0 0 0 0 0 0 0 0
0 0 0 0 0 0 0 0 0 0 0 0 0 0 0 0 0 0 0 0 0 0 0 0 0 0 0 0 0 0 0 0 0 0 0 0 0 0 0 0 0 0 0 0 0 0 0 0 0
0 0 0 0 0 0 0 0 0 0 0 0 0 0 0 0 0 0 0 0 0 0 0 0 0 0 0 0 0 0 0 0 0 0 0 0 0 0 0 0 0 0 0 0 0 0 0 0 0
-0 -0 0 0 0 0 0 0 0 0 0 0 0 0 0 0 0 0 0 0 0 0 0 0 0 0 0 0 0 0 0 0 0 0 0 0 0 0 0 0 0 0 0 0 0 0 0 0 0
-0 -0 0 0 0 0 0 0 0 0 0 0 0 0 0 0 0 0 0 0 0 0 0 0 0 0 0 0 0 0 0 0 0 0 0 0 0 0 0 0 0 0 0 0 0 0 0 0 0
-0 -0 -0 -0 -0 0 0 0 0 0 0 0 0 0 0 0 0 0 0 0 0 0 0 0 0 0 0 0 0 0 0 0 0 0 0 0 0 0 0 0 0 0 0 0 0 0 0 0 0
-0 -0 -0 0 0 0 0 0 0 0 0 0 0 0 0 0 0 0 0 0 0 0 0 0 0 0 0 0 0 0 0 0 0 0 0 0 0 0 0 0 0 0 0 0 0 0 0 0 0
0 -0 0 0 0 0 0 0 0 0 0 0 0 0 0 0 0 0 0 0 0 0 0 0 0 0 0 0 0 0 0 0 0 0 0 0 0 0 0 0 0 0 0 0 0 0 0 0 0
0 0 0 0 0 0 0 0 0 0 0 0 0 0 0 0 0 0 0 0 0 0 0 0 0 0 0 0 0 0 0 0 0 0 0 0 0 0 0 0 0 0 0 0 0 0 0 0 0
0 0 0 0 0 0 0 0 0 0 0 0 0 0 0 0 0 0 0 0 0 0 0 0 0 0 0 0 0 0 0 0 0 0 0 0 0 0 0 0 0 0 0 0 0 0 0 0 0
0 0 0 0 0 0 0 0 0 0 0 0 0 0 0 0 0 0 0 0 0 0 0 0 0 0 0 0 0 0 0 0 0 0 0 0 0 0 0 0 0 0 0 0 0 0 0 0 0
0 0 0 0 0 0 0 0 0 0 0 0 0 0 0 0 0 0 0 0 0 0 0 0 0 0 0 0 0 0 0 0 0 0 0 0 0 0 0 0 0 0 0 0 0 0 0 0 0
0 0 0 0 0 0 0 0 0 0 0 0 0 0 0 0 0 0 0 0 0 0 0 0 0 0 0 0 0 0 0 0 0 0 0 0 0 0 0 0 0 0 0 0 0 0 0 0 0
0 0 0 0 0 0 0 0 0 0 0 0 0 0 0 0 0 0 0 0 0 0 0 0 0 0 0 0 0 0 0 0 0 0 0 0 0 0 0 0 0 0 0 0 0 0 0 0 0
0 0 0 0 0 0 0 0 0 0 0 0 0 0 0 0 0 0 0 0 0 0 0 0 0 0 0 0 0 0 0 0 0 0 0 0 0 0 0 0 0 0 0 0 0 0 0 0 0
0 0 0 0 0 0 0 0 0 0 0 0 0 0 0 0 0 0 0 0 0 0 0 0 0 0 0 0 0 0 0 0 0 0 0 0 0 0 0 0 0 0 0 0 0 0 0 0 0
0 0 0 0 0 0 0 0 0 0 0 0 0 0 0 0 0 0 0 0 0 0 0 0 0 0 0 0 0 0 0 0 0 0 0 0 0 0 0 0 0 0 0 0 0 0 0 0 0
0 0 0 0 0 0 0 0 0 0 0 0 0 0 0 0 0 0 0 0 0 0 0 0 0 0 0 0 0 0 0 0 0 0 0 0 0 0 0 0 0 0 0 0 0 0 0 0 0
0 0 0 0 0 0 0 0 0 0 0 0 0 0 0 0 0 0 0 0 0 0 0 0 0 0 0 0 0 0 0 0 0 0 0 0 0 0 0 0 0 0 0 0 0 0 0 0 0
0 0 0 0 0 0 0 0 0 0 0 0 0 0 0 0 0 0 0 0 0 0 0 0 0 0 0 0 0 0 0 0 0 0 0 0 0 0 0 0 0 0 0 0 0 0 0 0 0
0 0 0 0 0 0 0 0 0 0 0 0 0 0 0 0 0 0 0 0 0 0 0 0 0 0 0 0 0 0 0 0 0 0 0 0 0 0 0 0 0 0 0 0 0 0 0 0 0
0 0 0 0 0 0 0 0 0 0 0 0 0 0 0 0 0 0 0 0 0 0 0 0 0 0 0 0 0 0 0 0 0 0 0 0 0 0 0 0 0 0 0 0 0 0 0 0 0
0 0 0 0 0 0 0 0 0 0 0 0 0 0 0 0 0 0 0 0 0 0 0 0 0 0 0 0 0 0 0 0 0 0 0 0 0 0 0 0 0 0 0 0 0 0 0 0 0
0 0 0 0 0 0 0 0 0 0 0 0 0 0 0 0 0 0 0 0 0 0 0 0 0 0 0 0 0 0 0 0 0 0 0 0 0 0 0 0 0 0 0 0 0 0 0 0 0
0 0 0 0 0 0 0 0 0 0 0 0 0 0 0 0 0 0 0 0 0 0 0 0 0 0 0 0 0 0 0 0 0 0 0 0 0 0 0 0 0 0 0 0 0 0 0 0 0
0 0 0 0 0 0 0 0 0 0 0 0 0 0 0 0 0 0 0 0 0 0 0 0 0 0 0 0 0 0 0 0 0 0 0 0 0 0 0 0 0 0 0 0 0 0 0 0 0
0 0 0 0 0 0 0 0 0 0 0 0 0 0 0 0 0 0 0 0 0 0 0 0 0 0 0 0 0 0 0 0 0 0 0 0 0 0 0 0 0 0 0 0 0 0 0 0 0
Wind_Speed
9 11 8 2 3 5 5 1 2 2 2 6 5 4 4 5 5 5 4 7 10 14 16 17 19 18 16 14 13 12 11 10 10 10 9 9 10 10 10 10 10 10 10 10 11 11 11 12 12
10 8 4 3 4 5 3 3 3 5 6 4 1 2 1 5 8 9 5 6 11 14 15 15 19 18 17 15 14 13 12 10 10 10 9 9 9 9 9 9 9 9 9 9 10 10 10 11 10
11 7 3 3 5 5 1 4 5 6 3 0 1 1 1 4 7 6 6 7 9 12 13 15 20 18 17 16 15 13 12 11 10 9 9 9 8 8 8 7 7 8 8 8 8 8 9 9 9
5 3 4 5 7 4 1 4 5 1 3 2 3 3 3 6 5 7 8 8 9 11 12 15 21 19 17 16 15 14 12 11 10 9 9 8 8 7 7 7 6 6 6 6 7 7 7 7 7
3 4 5 6 6 1 2 6 4 3 1 2 1 4 4 5 9 10 7 7 9 10 12 16 20 19 17 16 15 14 12 11 10 9 8 8 7 7 6 6 5 4 4 5 5 5 5 5 5
3 4 5 6 5 3 2 4 2 4 2 0 1 3 5 6 8 7 7 5 7 10 12 15 19 18 17 16 15 14 13 11 10 10 9 8 7 7 6 5 4 3 3 2 2 3 3 3 3
4 4 6 6 2 2 2 4 2 4 4 3 3 3 6 6 5 5 6 5 6 9 11 12 11 13 15 15 15 14 13 11 10 10 9 8 7 7 6 6 5 4 3 2 1 0 1 2 2
3 4 7 5 3 0 4 4 1 3 5 4 3 3 5 3 4 4 4 3 5 7 9 12 11 10 9 9 12 13 13 12 11 10 8 8 7 7 7 6 6 5 4 4 3 3 3 3 4
3 4 5 3 2 2 4 2 1 0 3 5 3 1 6 6 4 4 4 3 4 5 7 11 11 10 9 8 11 11 11 11 10 8 8 7 4 5 5 8 8 7 6 6 6 6 6 6 7
3 4 7 5 5 5 5 3 4 3 5 5 2 4 6 5 4 4 5 7 7 7 6 7 10 11 9 8 7 6 6 6 6 5 6 5 4 3 4 6 9 9 8 8 9 9 8 7 4
5 6 6 5 5 6 6 6 5 4 5 3 5 6 4 1 1 3 4 6 8 9 7 6 7 9 9 6 5 4 3 4 5 6 6 5 4 3 3 3 4 5 7 5 7 7 4 5 4
5 7 6 4 4 2 5 5 5 5 4 3 4 3 3 3 2 2 2 2 5 9 8 6 6 6 7 6 5 5 4 3 4 5 5 4 3 3 2 2 3 4 3 4 4 3 5 6 6
6 7 6 3 1 4 5 6 6 6 1 3 2 1 2 3 3 2 1 1 5 7 8 6 7 6 5 5 4 4 4 4 5 4 4 4 3 4 3 3 3 3 3 3 4 4 5 5 5
5 6 7 6 6 5 5 7 5 4 3 3 2 2 4 4 3 3 2 2 4 6 7 6 6 6 6 4 3 3 3 3 3 4 5 5 4 4 4 4 3 3 3 3 3 4 4 4 4
3 7 9 9 7 2 2 7 8 5 5 4 4 5 5 5 5 4 3 2 4 6 7 6 5 5 6 5 4 3 3 3 3 3 4 4 4 4 4 3 3 3 4 4 3 4 4 4 4
7 6 6 4 5 5 2 6 4 7 5 3 4 6 6 6 6 5 5 5 6 7 7 6 4 4 4 4 3 2 1 1 2 2 2 3 3 3 3 3 3 3 3 3 3 3 3 4 4
7 7 8 5 6 6 5 5 4 6 5 4 5 6 6 6 7 6 6 6 7 8 8 7 5 4 4 3 3 2 2 2 1 1 0 1 2 2 2 2 3 3 2 3 3 3 3 4 5
5 6 6 2 6 4 5 7 4 7 6 5 6 7 7 7 6 6 7 7 7 8 8 7 6 5 5 3 3 3 2 1 1 1 0 1 2 2 2 2 3 3 3 3 4 4 4 4 5
7 7 10 7 3 2 6 9 6 7 6 6 7 8 8 7 7 7 7 7 7 7 7 6 6 5 4 3 2 2 1 0 0 0 1 2 2 2 2 2 3 3 3 4 5 4 5 4 3
6 8 9 8 3 2 6 9 6 6 7 7 8 9 9 8 7 7 7 7 7 7 7 7 6 6 5 3 2 2 1 0 0 1 1 1 2 2 2 3 3 3 4 5 5 4 4 4 3
8 9 9 7 2 5 4 8 7 6 5 5 8 10 10 9 8 7 7 7 7 7 6 6 6 6 5 4 3 2 1 1 1 1 1 2 2 2 2 3 3 3 3 4 5 5 5 5 4
8 5 5 5 4 5 6 4 5 9 7 6 7 9 10 9 8 8 8 7 6 6 6 6 6 6 4 4 3 2 1 1 1 1 1 2 2 1 1 2 3 3 3 4 5 5 4 5 5
2 2 3 4 5 7 6 6 5 11 10 11 9 9 10 9 9 8 8 8 7 5 5 5 6 5 4 4 3 3 3 2 2 2 3 3 2 1 2 2 2 3 4 5 5 5 5 4 5
2 1 4 4 3 6 9 9 5 10 14 14 12 10 10 10 9 9 8 8 6 5 4 4 5 5 4 3 3 4 3 3 3 4 3 3 3 2 2 2 2 4 4 5 5 5 6 6 6
3 3 3 4 4 8 3 4 5 7 11 15 15 12 11 10 10 9 8 8 7 6 4 4 5 4 3 3 3 3 2 2 2 2 3 3 3 3 3 3 3 4 5 5 6 6 6 6 7
8 6 5 3 3 1 2 5 1 5 4 10 13 13 12 11 9 9 9 8 7 6 5 4 4 3 3 3 2 2 2 1 1 2 3 3 3 3 4 4 5 6 6 6 6 5 7 6 7
6 7 5 4 6 4 5 4 3 2 3 4 11 13 12 11 10 9 8 8 8 6 5 4 4 3 3 2 2 3 3 2 2 3 3 3 4 4 5 6 6 6 7 7 7 5 7 7 7
3 3 3 4 4 5 6 6 6 7 6 5 8 11 11 11 10 9 8 7 7 6 5 4 3 3 2 1 1 1 2 2 3 4 5 5 5 5 6 6 7 7 7 7 7 6 7 7 7
7 4 4 4 4 2 4 2 3 8 10 9 8 9 11 11 10 9 8 7 7 6 5 4 3 3 2 1 2 2 3 3 4 4 5 5 5 6 6 7 7 7 8 7 7 7 8 8 8
7 8 7 4 5 4 2 3 3 5 6 7 7 8 9 10 9 9 8 7 7 6 4 4 3 2 1 1 2 3 3 4 4 5 5 5 6 6 7 7 8 8 8 8 8 8 8 8 9
Wind_Direction
271 253 243 245 245 239 240 133 87 84 61 59 50 349 356 42 43 90 146 140 125 138 148 161 159 158 156 153 149 145 141 135 127 118 111 105 98 93 88 81 76 71 66 64 62 60 59 58 55
277 249 235 241 244 248 207 137 114 69 59 50 92 270 319 81 92 111 128 127 130 140 148 162 162 161 159 157 154 151 147 143 136 126 118 113 107 101 94 86 79 73 69 65 63 61 60 58 55
271 256 233 224 242 261 105 99 86 88 84 339 275 177 15 59 80 95 130 141 133 140 150 161 163 164 163 161 160 157 153 150 145 137 129 123 117 110 101 93 86 79 73 67 63 61 60 58 55
249 229 244 244 242 230 59 99 76 86 139 164 308 295 116 71 72 107 131 148 140 143 149 157 165 167 167 166 164 162 160 158 154 149 142 135 128 120 111 104 96 87 80 72 65 60 57 55 53
241 239 232 247 259 93 78 63 63 298 229 146 90 311 66 80 97 112 132 153 146 148 147 156 167 169 170 170 168 166 166 164 161 158 153 147 140 133 126 120 112 103 90 79 69 60 55 51 49
246 247 241 236 221 161 135 121 167 268 281 171 150 292 84 95 90 104 126 161 149 143 143 153 170 171 173 173 172 171 172 171 169 167 164 161 156 150 147 144 139 133 118 96 77 62 48 39 34
265 264 269 277 268 139 117 71 359 312 315 356 38 331 95 66 83 111 131 160 138 137 140 148 167 172 176 177 176 176 176 177 177 177 175 173 171 170 170 168 170 174 174 175 178 6 348 346 344
308 291 268 274 292 356 87 81 355 324 321 9 33 313 94 123 116 111 115 126 127 135 144 149 164 169 173 175 178 179 180 182 184 185 180 179 184 188 189 188 193 198 206 220 234 249 262 272 279
291 282 283 297 338 351 79 93 266 263 275 283 254 214 117 128 127 132 132 139 140 145 151 153 163 168 171 173 178 177 182 186 186 184 178 175 187 195 197 200 199 208 221 233 242 248 256 261 262
239 272 283 337 1 358 12 359 329 319 293 288 303 78 110 133 158 179 184 178 170 171 171 162 161 165 168 173 168 175 180 179 184 182 177 181 195 201 189 183 196 212 229 242 249 252 257 258 247
242 255 291 332 16 8 342 320 307 289 283 337 12 16 27 29 213 215 215 194 173 168 166 163 158 157 161 161 159 167 172 172 186 194 184 184 191 185 173 168 188 211 225 235 245 244 234 229 228
270 286 296 323 52 358 301 303 305 294 297 54 42 10 339 318 302 264 237 215 146 145 153 157 150 149 154 155 161 164 168 172 179 193 193 179 176 180 183 196 197 201 203 210 219 214 230 230 229
263 271 289 301 261 245 267 273 271 267 320 69 65 10 335 359 352 350 350 117 121 131 143 153 151 152 150 149 160 167 171 173 181 185 193 183 174 184 194 208 216 222 218 210 215 225 241 243 241
320 323 299 272 249 243 252 263 244 230 127 133 145 82 50 39 25 25 40 96 121 129 135 142 150 152 147 151 161 172 178 172 179 178 187 193 188 191 198 212 220 224 228 231 228 237 245 248 245
299 281 274 245 220 188 241 262 221 159 150 179 150 106 81 60 50 45 57 97 113 119 121 128 142 146 151 161 174 176 180 172 179 180 188 196 200 204 206 214 223 225 227 231 237 250 258 262 261
243 250 256 190 161 137 193 273 137 137 170 170 124 107 95 76 66 57 57 70 90 101 102 100 103 125 140 148 159 166 170 157 158 165 185 203 211 216 220 225 232 234 235 235 239 243 255 260 258
233 242 247 165 178 164 209 265 146 159 177 177 148 123 109 89 75 68 67 73 84 93 96 99 100 105 111 116 113 96 77 73 84 105 162 219 234 235 234 239 244 249 249 244 244 244 242 256 263
292 296 299 233 166 188 233 261 203 181 188 186 148 126 109 94 83 79 74 71 76 87 95 100 98 94 96 91 93 86 71 46 49 57 298 276 266 262 255 251 257 261 258 254 246 248 249 250 257
311 313 306 307 124 187 251 260 233 176 185 186 156 133 119 112 107 100 93 87 83 83 90 95 97 92 90 82 84 91 93 42 311 252 271 272 265 261 254 256 263 259 254 254 252 251 258 261 260
292 282 280 284 139 185 266 267 236 178 192 183 158 141 134 130 120 110 103 95 92 91 92 94 93 89 85 85 89 91 98 98 169 236 259 278 274 261 244 243 250 252 253 260 260 254 258 262 245
257 254 265 283 317 229 255 274 218 169 171 158 149 141 140 142 135 124 108 97 89 86 89 93 90 87 86 88 86 66 47 349 11 326 293 270 263 262 254 249 253 261 255 254 254 247 245 254 250
262 273 268 287 297 274 197 264 195 165 168 174 165 149 146 141 136 130 121 110 101 95 92 94 93 91 86 82 74 68 58 31 351 348 291 286 264 253 260 268 269 269 266 264 261 254 244 243 253
248 23 312 275 264 276 253 249 235 157 182 188 183 164 149 144 140 134 127 123 114 104 99 99 96 90 81 76 69 50 41 13 357 352 343 334 316 281 260 257 271 273 268 267 267 270 262 248 245
110 242 253 252 250 258 233 216 238 183 194 183 181 170 154 147 142 136 131 126 120 117 110 107 102 97 89 78 69 69 48 10 356 349 347 333 320 311 300 281 273 272 269 267 265 262 260 255 254
188 218 237 212 214 241 222 201 255 179 176 176 176 168 158 151 148 147 149 144 140 137 131 120 112 107 90 72 58 58 52 5 344 343 334 323 315 313 309 316 295 283 273 268 265 262 259 255 255
196 219 241 265 247 179 187 226 212 74 107 158 162 160 157 157 157 158 159 151 145 145 143 127 112 104 85 65 42 34 31 12 344 333 316 304 295 292 298 299 286 280 279 276 269 264 258 257 253
197 214 255 307 301 283 244 180 103 84 77 139 156 159 164 163 159 157 155 149 147 148 144 128 116 103 84 57 31 21 4 351 334 318 305 295 289 290 293 291 287 283 280 278 275 267 265 262 257
280 273 185 209 241 259 257 215 186 175 185 184 171 169 165 160 156 154 152 149 144 141 133 122 113 106 93 55 33 359 325 326 320 308 299 294 293 295 296 292 289 287 286 284 281 278 273 271 267
191 230 230 235 257 260 290 337 36 160 173 181 187 172 164 160 158 155 152 147 140 137 141 134 119 103 84 37 7 340 324 322 312 301 296 297 298 300 297 294 293 290 287 285 283 281 283 281 282
195 205 208 220 235 213 245 275 32 91 138 162 176 169 160 156 154 150 147 145 145 148 147 137 130 117 101 32 338 317 311 307 302 298 299 304 304 302 298 296 292 289 289 287 285 286 287 285 286